AFL3500 ULLI-UWGG

Flight info

Callsign AFL3500
Flight time N/A
Altitude 35000
Route SUGIN1B SUGIN T873 NIRGI T73 DESUD P164 GAKLU N869 RANTO
Aircraft A321/M-SDE3FGHIRWY/LB1

Departure

Time N/A
Airport Pulkovo Airport (ULLI)

Arrival

Time 2026-04-25 20:10
Airport Nizhny Novgorod / Strigino International Airport (UWGG)
Time Latitude Longitude Altitude Speed Heading
2026-04-25 19:39 57.37573 39.59877 34636 ft 482 kts 123°
2026-04-25 19:39 57.35861 39.65231 34642 ft 482 kts 123°
2026-04-25 19:40 57.32435 39.75927 34651 ft 482 kts 123°
2026-04-25 19:40 57.29006 39.86603 34656 ft 482 kts 124°
2026-04-25 19:41 57.25566 39.97273 34657 ft 482 kts 124°
2026-04-25 19:41 57.23289 40.04318 34642 ft 482 kts 123°
2026-04-25 19:42 57.18686 40.18462 34660 ft 483 kts 124°
2026-04-25 19:42 57.15216 40.29059 34664 ft 483 kts 124°
2026-04-25 19:43 57.11744 40.39644 34680 ft 483 kts 124°
2026-04-25 19:43 57.08258 40.50223 34663 ft 483 kts 124°
2026-04-25 19:44 57.04761 40.60770 34676 ft 483 kts 124°
2026-04-25 19:44 57.01272 40.71220 34679 ft 482 kts 124°
2026-04-25 19:45 56.97763 40.81712 34684 ft 482 kts 124°
2026-04-25 19:45 56.94255 40.92190 34686 ft 482 kts 124°
2026-04-25 19:46 56.90727 41.02651 34677 ft 482 kts 124°
2026-04-25 19:46 56.87188 41.13073 34680 ft 481 kts 124°
2026-04-25 19:47 56.83668 41.23401 34686 ft 481 kts 124°
2026-04-25 19:47 56.80112 41.33818 34693 ft 481 kts 124°
2026-04-25 19:48 56.76563 41.44174 34674 ft 481 kts 124°
2026-04-25 19:48 56.73025 41.54445 34689 ft 481 kts 124°
2026-04-25 19:49 56.70643 41.61336 34694 ft 481 kts 124°
2026-04-25 19:49 56.65880 41.75051 34702 ft 481 kts 125°
2026-04-25 19:50 56.62292 41.85331 34207 ft 481 kts 125°
2026-04-25 19:50 56.60483 41.90508 33174 ft 489 kts 125°
2026-04-25 19:50 56.58667 41.95679 32239 ft 493 kts 125°
2026-04-25 19:51 56.56815 42.00936 31266 ft 496 kts 125°
2026-04-25 19:51 56.54953 42.06212 30420 ft 497 kts 126°
2026-04-25 19:51 56.53079 42.11513 29445 ft 499 kts 126°
2026-04-25 19:51 56.51212 42.16783 28490 ft 498 kts 126°
2026-04-25 19:52 56.49339 42.22061 27472 ft 499 kts 125°
2026-04-25 19:52 56.47463 42.27343 26757 ft 494 kts 125°
2026-04-25 19:52 56.45611 42.32555 26073 ft 490 kts 125°
2026-04-25 19:52 56.43769 42.37724 25383 ft 487 kts 125°
2026-04-25 19:53 56.41935 42.42851 24722 ft 483 kts 125°
2026-04-25 19:53 56.40114 42.47923 24068 ft 479 kts 125°
2026-04-25 19:53 56.38324 42.52904 23423 ft 476 kts 125°
2026-04-25 19:53 56.36522 42.57909 22702 ft 473 kts 125°
2026-04-25 19:54 56.34735 42.62862 22103 ft 466 kts 125°
2026-04-25 19:54 56.32977 42.67722 21501 ft 460 kts 125°
2026-04-25 19:54 56.31233 42.72524 20932 ft 454 kts 125°
2026-04-25 19:54 56.30653 42.74119 20757 ft 452 kts 125°
2026-04-25 19:55 56.27819 42.81924 19850 ft 442 kts 124°
2026-04-25 19:55 56.26172 42.86457 19365 ft 436 kts 124°
2026-04-25 19:55 56.24497 42.91050 18871 ft 430 kts 124°
2026-04-25 19:55 56.22878 42.95467 18391 ft 425 kts 124°
2026-04-25 19:56 56.21257 42.99875 17906 ft 420 kts 124°
2026-04-25 19:56 56.19657 43.04218 17400 ft 415 kts 124°
2026-04-25 19:56 56.18076 43.08512 16929 ft 409 kts 124°
2026-04-25 19:56 56.16533 43.12772 16458 ft 404 kts 121°
2026-04-25 19:57 56.15358 43.17326 15974 ft 401 kts 108°
2026-04-25 19:57 56.14727 43.22165 15498 ft 396 kts 96°
2026-04-25 19:57 56.14643 43.27071 15041 ft 390 kts 84°
2026-04-25 19:57 56.15080 43.31833 14588 ft 384 kts 72°
2026-04-25 19:58 56.15890 43.36304 14130 ft 381 kts 69°
2026-04-25 19:58 56.16735 43.40792 13667 ft 378 kts 69°
2026-04-25 19:58 56.17568 43.45261 13176 ft 376 kts 69°
2026-04-25 19:58 56.18390 43.49711 12688 ft 373 kts 69°
2026-04-25 19:59 56.19198 43.54109 12212 ft 369 kts 69°
2026-04-25 19:59 56.19998 43.58463 11731 ft 366 kts 69°
2026-04-25 19:59 56.20792 43.62792 11253 ft 363 kts 70°
2026-04-25 19:59 56.21581 43.67087 10773 ft 360 kts 70°
2026-04-25 20:00 56.22358 43.71336 10470 ft 352 kts 70°
2026-04-25 20:00 56.22604 43.72686 10421 ft 348 kts 70°
2026-04-25 20:00 56.23827 43.79411 10212 ft 328 kts 70°
2026-04-25 20:00 56.24516 43.83194 10081 ft 316 kts 70°
2026-04-25 20:01 56.25848 43.90516 9736 ft 301 kts 70°
2026-04-25 20:01 56.26499 43.94103 9594 ft 303 kts 70°
2026-04-25 20:01 56.27156 43.97729 9122 ft 304 kts 70°
2026-04-25 20:02 56.27806 44.01327 8720 ft 302 kts 70°
2026-04-25 20:02 56.28547 44.04820 8413 ft 295 kts 57°
2026-04-25 20:02 56.29873 44.07547 7980 ft 287 kts 32°
2026-04-25 20:02 56.31644 44.09054 7518 ft 281 kts
2026-04-25 20:03 56.33521 44.09192 7218 ft 270 kts 347°
2026-04-25 20:03 56.35287 44.08181 6702 ft 264 kts 335°
2026-04-25 20:03 56.36989 44.06911 6108 ft 264 kts 335°
2026-04-25 20:03 56.38678 44.05644 5502 ft 262 kts 335°
2026-04-25 20:04 56.40360 44.04385 5101 ft 260 kts 335°
2026-04-25 20:04 56.41951 44.02844 4598 ft 259 kts 317°
2026-04-25 20:04 56.42980 44.00282 4142 ft 257 kts 290°
2026-04-25 20:04 56.43220 43.97138 3888 ft 249 kts 263°
2026-04-25 20:05 56.42730 43.94222 3773 ft 238 kts 248°
2026-04-25 20:05 56.42095 43.91541 3693 ft 224 kts 248°
2026-04-25 20:05 56.41694 43.89858 3595 ft 216 kts 248°
2026-04-25 20:05 56.40777 43.86706 3469 ft 212 kts 232°
2026-04-25 20:06 56.40066 43.85495 3420 ft 213 kts 218°
2026-04-25 20:06 56.38719 43.84364 3261 ft 216 kts 195°
2026-04-25 20:06 56.37249 43.83814 2987 ft 212 kts 193°
2026-04-25 20:06 56.35408 43.83147 2613 ft 195 kts 193°
2026-04-25 20:07 56.34539 43.82829 2439 ft 182 kts 193°
2026-04-25 20:07 56.33373 43.82400 2198 ft 162 kts 193°
2026-04-25 20:07 56.32303 43.82006 1970 ft 153 kts 193°
2026-04-25 20:07 56.31273 43.81626 1765 ft 149 kts 193°
2026-04-25 20:08 56.30262 43.81254 1555 ft 148 kts 193°
2026-04-25 20:08 56.29257 43.80884 1348 ft 147 kts 193°
2026-04-25 20:08 56.28262 43.80518 1131 ft 146 kts 192°
2026-04-25 20:08 56.27286 43.80161 950 ft 144 kts 192°
2026-04-25 20:09 56.26305 43.79804 749 ft 143 kts 192°
2026-04-25 20:09 56.25332 43.79443 573 ft 142 kts 192°
2026-04-25 20:09 56.24362 43.79082 362 ft 142 kts 191°
2026-04-25 20:09 56.23416 43.78740 266 ft 129 kts 192°
2026-04-25 20:10 56.22750 43.78493 266 ft 73 kts 192°
2026-04-25 20:10 56.22305 43.78332 267 ft 47 kts 191°
2026-04-25 20:10 56.22108 43.78257 267 ft 23 kts 192°
2026-04-25 20:10 56.21994 43.78220 267 ft 9 kts 187°
2026-04-25 20:11 56.21951 43.78280 266 ft 8 kts 109°
2026-04-25 20:11 56.21938 43.78363 267 ft 6 kts 102°
2026-04-25 20:11 56.21929 43.78434 267 ft 5 kts 101°
2026-04-25 20:11 56.21923 43.78494 266 ft 5 kts 101°
2026-04-25 20:12 56.21917 43.78550 266 ft 6 kts 101°
2026-04-25 20:12 56.21919 43.78648 266 ft 9 kts 66°
2026-04-25 20:12 56.21952 43.78704 266 ft 2 kts 28°
2026-04-25 20:12 56.21960 43.78708 266 ft 3 kts 15°
2026-04-25 20:13 56.21988 43.78799 266 ft 7 kts 97°
2026-04-25 20:13 56.21982 43.78856 266 ft 2 kts 99°
2026-04-25 20:13 56.21981 43.78863 266 ft 0 kts 99°